Wind_Speed
66 63 61 59 57 56 54 52 50 47 46 47 48 47 47 47 47 48 48 48 48 47 47 46 45 45 42 39 38 37 36 35 34 35 38 38 36 36 40 46 48 44 42 42 42 40 40 38 31 28 33 30 22 20 21 20 21 26 30 33 37 41 45 47 46 44 45 45 46 46 41 39 41 42 43 45 46 45 45 45 44 44 45 43 40 39 37
65 63 61 59 57 56 54 52 51 48 46 47 47 48 48 46 47 48 49 48 49 48 46 45 45 44 43 43 42 40 38 37 35 37 39 40 39 37 41 46 49 48 46 48 47 42 40 39 33 30 35 30 23 22 25 25 24 26 28 28 31 38 44 47 45 45 46 47 48 48 44 41 41 40 40 41 41 41 42 41 38 38 40 40 39 38 35
64 62 60 58 56 55 53 52 50 48 46 46 47 48 48 47 46 48 50 49 48 48 46 45 45 46 46 46 44 42 40 37 37 38 40 41 40 38 40 46 51 53 50 52 52 44 39 40 39 37 35 30 26 26 28 29 28 26 24 24 25 31 39 45 46 47 50 51 51 49 47 44 41 39 38 37 37 38 41 42 40 39 38 38 38 37 34
63 60 58 56 54 53 52 51 50 48 47 46 47 48 48 47 46 47 50 50 48 48 47 46 45 46 46 45 43 42 40 37 38 39 40 41 41 39 40 44 52 56 53 52 53 45 40 43 45 42 35 29 27 26 28 30 27 24 23 24 24 25 30 39 45 48 48 48 47 45 43 42 39 38 37 37 36 37 41 44 43 39 38 37 37 35 33
60 57 55 54 52 51 51 50 49 49 47 46 47 48 47 47 46 46 48 50 50 49 48 46 45 45 46 45 43 42 40 38 39 40 41 43 42 41 41 43 52 58 56 54 51 45 43 46 48 45 37 32 29 25 27 29 26 25 26 27 28 27 26 31 39 45 45 44 44 42 40 40 38 36 34 35 36 38 43 47 43 38 38 36 32 30 30
57 55 53 52 51 51 50 49 49 49 48 47 47 48 48 48 47 46 47 50 51 50 48 46 45 45 46 46 44 42 40 39 40 41 42 43 42 43 43 45 51 56 59 58 52 46 44 45 49 48 39 35 31 24 26 30 29 30 32 32 32 32 28 25 30 38 42 43 43 42 40 40 38 36 34 32 34 38 44 46 41 37 37 34 29 29 29
57 55 54 52 52 51 50 50 49 50 50 48 48 49 49 49 48 47 47 48 50 51 49 47 45 45 46 47 45 43 43 41 41 41 41 41 43 46 46 48 52 55 60 64 57 50 45 41 45 48 41 36 34 26 25 30 32 34 36 35 34 34 32 27 25 29 37 43 44 42 40 39 38 37 35 33 33 37 42 44 40 37 37 35 34 34 32
57 56 54 52 52 52 51 51 50 51 51 50 49 50 50 50 49 48 47 47 48 51 51 49 47 45 46 47 46 45 45 44 43 41 40 42 45 48 49 49 52 55 60 67 63 53 46 40 41 45 43 40 37 29 25 25 28 33 36 35 35 36 34 31 28 28 34 41 44 43 40 38 37 36 35 34 34 35 39 42 41 39 39 38 39 39 34
54 53 51 50 50 51 51 51 50 51 51 51 50 50 50 50 50 49 48 47 47 49 51 51 48 45 46 48 47 46 45 45 45 43 41 44 47 49 50 50 52 54 57 65 66 56 48 43 41 41 42 44 41 33 26 25 25 28 32 34 37 37 35 33 34 33 34 39 45 45 40 38 38 36 33 33 33 33 36 39 40 38 37 37 39 38 31
49 48 47 47 48 49 50 50 50 50 50 51 51 50 50 50 50 49 48 47 46 47 49 51 50 46 45 48 48 47 46 46 46 44 43 45 47 49 51 51 51 52 53 58 65 62 52 44 42 40 41 46 46 38 30 29 28 27 31 35 37 39 39 38 37 36 33 37 44 43 39 39 41 39 36 35 34 33 34 36 38 37 34 34 38 37 29
46 45 45 45 45 47 48 49 49 49 50 50 51 50 50 50 49 49 48 46 45 46 47 49 51 47 45 47 48 48 47 47 46 45 44 45 48 50 51 52 51 48 47 52 60 64 57 46 41 42 43 46 49 43 35 33 34 32 33 35 37 40 43 41 38 36 34 37 43 42 40 39 39 38 39 40 39 37 37 38 38 38 36 34 35 36 32
44 43 43 43 44 45 46 47 48 49 49 50 50 50 50 49 48 47 47 45 44 45 46 48 50 49 46 47 49 48 47 48 47 46 45 46 49 50 50 52 51 46 46 50 55 60 61 53 44 43 44 45 49 48 41 38 40 38 34 34 38 42 43 41 37 34 34 38 43 45 43 39 35 36 39 42 43 43 42 41 40 40 40 37 35 35 34
43 42 42 42 42 43 43 44 45 47 47 48 48 48 49 48 47 45 45 44 42 43 46 47 50 50 47 46 48 48 47 48 47 46 46 47 48 50 50 52 52 49 50 52 51 53 58 58 51 45 43 43 47 50 47 43 44 41 34 34 38 42 43 41 37 34 35 40 45 48 47 42 38 39 40 42 46 47 44 43 43 42 42 43 42 38 35
42 41 40 40 41 41 41 42 43 43 44 44 45 46 46 46 45 43 42 42 41 42 45 47 49 50 48 46 48 48 47 48 47 46 47 47 47 49 50 51 51 51 51 50 49 50 53 56 56 50 42 40 44 51 50 45 43 40 34 34 40 43 44 43 39 36 37 40 45 47 48 46 44 43 42 42 47 50 46 41 41 43 44 46 47 43 39
42 40 40 39 40 40 40 40 40 40 40 40 41 43 44 43 42 41 40 39 40 41 44 46 48 50 49 47 47 47 47 48 47 46 47 47 46 47 49 50 51 51 51 48 47 48 49 50 54 54 47 40 41 48 51 45 41 38 33 34 41 44 44 44 43 40 37 38 41 42 45 49 47 45 44 44 46 49 47 41 40 42 44 46 48 46 43
41 40 39 39 39 39 39 38 37 37 37 37 38 39 40 40 40 40 38 38 38 40 43 46 48 49 48 47 47 47 47 48 48 47 46 46 45 46 48 49 50 51 50 48 46 47 48 47 49 52 51 44 39 45 51 48 42 38 34 34 40 45 46 45 45 44 40 39 40 39 41 48 50 47 46 46 46 46 44 41 41 44 46 47 48 47 45
40 39 39 39 38 38 37 36 35 34 35 35 36 38 38 38 39 39 38 37 37 39 42 45 47 47 47 47 47 47 47 47 47 46 46 45 44 45 47 48 50 51 50 47 45 45 47 48 47 49 52 49 42 42 48 51 47 42 38 35 37 42 46 46 45 45 44 44 44 42 41 44 47 48 47 47 49 48 46 43 43 43 43 44 44 42 39
38 39 39 38 37 36 35 34 32 32 33 34 35 37 38 37 38 39 38 37 37 38 41 44 45 46 47 46 47 48 48 48 47 46 45 45 43 42 45 47 49 51 50 48 46 45 47 49 47 46 49 52 48 44 45 51 52 46 40 36 36 37 40 43 45 47 48 46 45 46 46 44 43 43 42 43 45 45 45 44 44 43 41 38 37 36 33
37 38 38 37 36 35 33 32 31 31 32 33 35 37 37 37 37 38 38 38 38 37 39 43 44 45 46 45 46 48 48 48 48 47 46 45 43 41 42 45 48 50 51 49 47 47 47 48 48 44 45 50 52 50 48 49 52 50 43 37 36 37 36 39 46 51 52 49 45 43 45 46 46 44 40 39 39 37 37 39 40 42 42 39 36 35 34
36 36 36 35 34 33 31 30 30 30 32 33 34 36 37 36 37 38 38 38 38 37 39 42 43 43 44 44 45 48 49 48 49 49 47 46 44 42 42 43 46 49 50 48 47 46 47 49 49 46 43 45 50 53 52 49 49 51 47 40 38 39 37 38 46 53 56 55 50 45 43 43 45 46 43 41 39 35 35 37 38 40 42 41 39 37 36
35 34 33 32 31 30 29 28 28 29 31 33 34 35 36 35 35 36 37 37 37 36 37 41 43 41 41 42 44 47 48 48 49 49 48 47 45 44 43 44 45 46 47 47 46 46 48 49 49 47 45 44 46 48 51 53 51 50 49 45 41 42 42 41 44 51 58 61 57 52 49 47 45 45 45 45 44 41 38 36 35 37 40 41 42 43 42
32 31 30 29 28 27 27 27 27 28 30 32 32 33 34 34 34 34 35 35 35 35 37 41 42 40 38 40 43 45 46 47 47 48 48 48 46 45 44 45 46 45 43 43 44 46 49 49 49 48 45 43 43 43 46 52 53 52 51 48 43 43 45 44 43 47 54 60 59 54 52 51 50 49 48 48 47 45 43 40 38 37 39 42 45 47 48
28 27 26 25 25 25 25 26 26 27 29 30 31 31 33 33 32 32 33 34 34 33 36 39 40 38 37 39 42 44 44 45 46 48 48 48 47 46 45 44 45 45 42 39 41 46 49 49 50 49 46 43 42 41 42 46 50 52 53 51 48 45 45 45 44 46 48 52 55 52 48 49 51 53 54 54 51 48 45 43 43 43 42 43 45 47 48
24 23 22 23 24 24 25 25 25 26 27 28 29 30 31 31 30 30 30 31 32 32 34 37 38 36 36 37 39 41 42 43 44 46 47 48 48 48 46 43 43 46 43 38 39 44 48 50 50 49 47 46 46 44 43 45 49 51 52 52 52 50 46 43 43 45 46 47 49 49 46 45 48 49 52 55 56 54 50 46 45 46 45 43 43 44 46
20 20 21 21 23 24 24 24 24 24 25 26 26 27 29 29 28 27 28 29 30 31 33 35 36 34 34 35 36 37 39 41 42 43 45 46 47 48 48 43 41 45 46 41 38 40 43 47 51 51 50 50 50 49 46 44 48 52 52 51 52 51 49 45 42 41 43 45 46 47 45 43 44 43 44 46 48 51 51 49 46 46 45 41 40 42 45
18 19 20 21 22 23 23 23 23 23 23 24 24 26 27 26 25 25 26 27 28 30 31 33 33 33 33 34 35 35 36 38 40 42 43 45 45 46 47 44 40 43 47 45 42 39 35 35 42 46 49 49 50 51 49 45 45 49 49 50 51 50 48 46 44 42 42 43 44 46 46 44 42 42 43 45 46 47 49 50 50 50 47 42 40 41 43
17 18 19 20 21 22 22 21 22 22 22 22 23 24 25 24 23 24 25 25 27 28 30 31 31 31 32 33 33 34 34 35 37 39 40 43 44 44 45 44 40 40 44 47 47 42 34 29 29 31 37 42 44 45 45 42 41 43 41 40 43 45 45 46 46 44 44 45 45 45 46 44 42 41 43 45 47 48 48 48 48 48 48 50 50 46 41
17 18 19 19 20 20 20 20 20 20 21 22 23 23 23 23 23 24 24 25 26 28 29 29 29 29 31 32 31 32 32 32 34 35 36 40 42 43 43 42 38 36 41 47 48 42 35 29 26 24 26 31 34 38 40 37 35 37 36 32 31 34 37 41 40 38 38 40 42 44 45 45 45 45 44 44 45 47 47 45 44 45 49 54 53 46 40
16 17 17 18 18 18 19 19 19 19 21 22 22 22 22 22 23 24 24 25 26 27 27 27 28 28 29 31 30 30 30 30 32 33 34 36 38 40 40 39 36 35 39 43 43 39 32 29 28 25 23 22 23 28 33 33 31 31 30 28 28 30 31 33 33 33 33 33 34 37 39 41 42 43 42 41 42 43 42 42 43 43 44 45 44 41 39
15 15 15 16 17 18 18 18 18 19 21 21 21 22 23 23 24 24 24 25 26 27 26 26 27 27 29 30 30 29 28 29 29 30 32 34 35 36 36 35 34 34 37 39 39 37 33 30 27 26 25 22 19 21 23 25 25 25 25 25 26 27 29 31 31 32 33 33 33 32 31 32 34 36 37 37 37 37 37 38 38 36 34 33 33 34 34
13 14 14 15 16 17 17 17 17 19 21 21 21 23 24 24 24 24 24 25 27 27 27 26 27 28 28 28 28 28 27 27 27 28 30 31 33 33 33 32 32 33 35 38 38 37 35 32 28 27 27 25 23 22 21 19 18 19 20 21 21 21 23 27 29 31 32 33 34 34 33 33 33 33 35 36 35 32 30 30 29 27 26 26 27 29 30
12 12 13 14 15 15 16 16 18 20 21 20 21 23 24 25 25 24 25 25 26 28 28 27 27 28 28 27 27 26 25 25 25 26 27 29 30 31 31 31 31 31 33 37 39 38 36 34 31 29 29 27 25 25 23 20 18 19 19 18 18 17 17 19 22 25 28 30 31 32 33 34 34 34 35 36 33 29 26 26 25 24 23 24 24 26 28
11 12 12 13 14 15 15 17 18 20 20 20 22 24 25 25 25 25 25 25 25 27 28 28 28 27 27 26 25 24 24 24 24 25 25 26 28 29 29 29 30 29 31 37 41 39 36 34 32 30 31 30 27 26 24 22 22 22 21 20 18 17 16 16 17 19 21 24 26 27 27 29 31 31 31 31 28 25 25 26 26 26 26 26 27 28 29
10 11 12 13 14 14 16 17 18 19 20 21 23 25 25 25 25 25 25 25 24 25 26 29 29 27 26 25 25 24 23 23 23 24 25 25 26 27 27 27 28 27 29 38 44 42 37 35 33 32 32 31 29 28 26 24 24 24 23 22 21 19 18 18 17 17 19 21 21 22 22 25 27 26 24 24 24 24 25 27 27 28 28 29 30 31 32
10 11 12 13 14 15 16 17 17 18 20 23 25 25 26 26 26 26 25 24 23 22 24 26 28 28 26 25 25 24 24 23 23 23 24 25 26 26 25 25 27 28 31 39 45 43 39 37 34 33 33 32 30 29 27 26 26 26 25 24 23 23 22 21 19 20 22 22 21 19 20 21 23 23 22 23 24 24 25 25 26 26 27 28 29 30 31
11 12 12 13 14 15 15 16 17 19 22 24 24 25 26 25 25 25 25 23 22 21 22 24 26 27 26 25 23 24 24 23 22 23 24 24 24 24 24 25 27 29 34 40 43 42 40 39 35 33 34 34 32 30 29 28 27 26 25 25 24 23 22 21 20 22 23 22 20 20 20 22 24 25 26 26 25 25 26 26 27 27 28 29 30 31 32
11 12 12 13 14 15 15 16 19 21 23 24 24 24 25 25 25 25 24 22 21 21 22 23 23 24 25 24 22 22 23 22 22 23 24 24 24 25 26 26 28 30 34 38 41 40 39 38 36 34 35 36 34 33 32 30 29 28 26 24 24 24 22 22 23 24 23 22 23 24 25 25 26 27 28 28 28 28 28 28 28 29 29 30 31 31 32
12 12 13 13 14 15 16 19 22 23 23 23 23 24 24 24 24 24 23 22 22 22 23 23 22 21 22 23 22 21 22 22 21 22 23 24 26 28 28 28 28 29 31 33 37 38 38 38 38 37 36 36 36 35 34 33 31 30 28 26 25 24 22 21 23 24 26 27 28 28 28 29 29 29 29 30 30 29 29 29 30 30 31 31 32 32 32
12 13 14 14 15 17 20 22 23 23 22 23 23 23 24 24 24 23 23 23 22 23 24 25 23 21 23 22 21 21 21 20 20 20 21 25 28 30 30 29 29 30 30 31 34 37 38 38 39 38 37 36 36 35 35 34 33 32 30 29 27 26 24 23 24 26 28 29 29 30 30 30 29 29 29 30 30 31 31 32 32 33 33 33 33 33 33
13 14 14 15 18 21 23 23 22 22 22 23 23 23 23 23 23 23 23 23 23 26 29 27 21 21 24 23 21 20 19 19 20 19 22 27 31 31 30 30 30 31 31 31 33 36 36 36 36 37 36 35 35 34 34 34 32 30 29 28 28 27 28 29 30 32 32 32 32 31 30 29 29 29 30 30 31 31 32 32 32 32 33 33 33 33 34
14 15 16 19 21 23 23 23 22 22 22 22 22 22 22 22 21 21 22 21 24 30 32 25 19 20 23 23 22 22 19 19 19 19 22 29 33 31 29 30 31 31 31 31 31 34 34 32 32 33 34 33 32 31 31 29 28 26 26 26 27 29 30 32 33 33 33 32 31 30 29 29 29 30 30 30 30 30 30 30 31 31 31 32 32 33 34
15 17 20 21 23 23 23 23 23 23 23 22 22 21 21 21 20 20 21 21 25 31 30 23 19 22 23 22 24 23 20 18 18 18 21 27 31 30 29 29 29 30 31 30 30 32 32 30 29 30 31 29 28 26 25 25 24 24 25 26 28 30 31 32 31 30 30 30 30 30 30 29 29 29 29 29 29 29 29 29 29 30 30 31 32 32 33
17 20 22 23 23 24 24 24 24 24 23 23 22 21 20 20 18 18 19 22 27 30 28 23 22 23 21 21 24 25 21 18 18 19 20 23 26 28 29 29 27 28 29 29 29 30 31 30 29 28 28 27 26 25 24 24 24 25 26 27 28 29 29 29 28 28 28 28 28 29 29 28 28 28 28 28 28 28 28 28 28 29 29 30 31 32 33
17 20 23 24 24 25 25 25 25 24 23 23 22 21 20 18 16 15 16 21 27 28 25 23 24 24 20 20 24 26 23 21 20 20 20 21 23 25 26 27 26 26 26 26 26 28 29 29 28 27 27 27 26 26 27 27 27 28 28 28 28 27 27 26 26 26 27 27 27 27 27 27 28 28 27 27 27 27 27 28 28 29 30 31 32 33 35
18 21 23 24 25 25 25 26 25 24 23 23 21 20 19 17 16 15 16 19 24 25 23 23 26 24 21 21 25 25 24 23 24 22 21 21 22 22 22 23 24 24 24 23 23 24 25 26 25 25 25 25 25 25 27 27 26 26 25 25 25 24 24 24 24 25 26 26 27 27 27 27 27 27 26 27 27 27 28 29 29 30 31 33 34 35 36
21 23 24 24 25 25 25 25 25 24 24 23 23 22 20 15 13 14 15 17 20 21 21 25 27 24 21 22 25 25 24 25 26 25 24 22 22 22 21 20 21 23 24 23 22 21 21 22 22 22 22 22 22 22 23 22 22 21 21 22 22 23 23 24 25 25 26 26 26 26 26 26 26 26 26 27 27 28 29 30 31 31 32 32 32 33 33
24 24 23 24 25 25 25 25 24 23 24 25 26 25 22 17 13 14 15 17 19 18 19 24 26 24 22 23 25 25 25 25 25 25 25 24 23 23 22 22 22 23 22 21 19 19 18 17 17 17 19 20 19 19 19 19 19 20 20 21 21 22 22 23 23 23 24 24 24 24 25 25 26 26 27 28 29 30 30 30 29 29 28 28 28 29 30
25 23 23 24 25 25 25 24 22 23 26 27 26 24 21 18 15 13 14 17 19 18 19 25 26 22 22 25 27 25 24 24 23 22 22 23 23 23 23 23 23 22 20 18 17 16 16 16 15 16 17 17 17 17 17 18 19 19 19 19 20 20 21 21 22 22 22 23 24 24 25 26 26 27 28 28 29 28 27 26 24 24 24 25 26 27 28
24 22 22 25 26 27 25 23 21 24 27 27 22 19 19 18 16 13 14 17 18 17 20 26 24 19 21 26 27 25 24 24 23 22 22 22 23 23 22 21 20 19 19 18 17 17 16 16 16 16 16 16 17 17 17 17 17 18 18 18 19 19 20 21 21 22 23 23 24 25 25 26 26 26 26 25 24 23 22 21 21 22 22 23 24 24 23
24 22 23 26 28 27 25 21 21 23 24 21 17 16 18 18 16 14 15 17 17 17 22 25 22 18 21 25 25 24 25 25 24 24 24 23 22 21 20 19 18 18 18 18 18 17 17 17 16 16 16 16 16 16 16 16 16 17 17 18 18 19 20 20 21 22 23 23 24 24 25 24 24 23 22 21 20 19 19 20 20 21 21 21 21 20 20
25 23 25 27 28 26 23 21 20 21 19 16 15 16 17 16 14 14 16 17 17 19 22 23 20 19 21 23 24 24 25 24 24 23 23 22 21 20 19 19 18 18 18 18 17 16 16 15 15 15 15 15 15 15 15 15 16 17 17 17 18 18 19 19 19 20 21 22 23 23 23 22 21 20 19 18 18 18 18 18 18 18 18 18 19 19 18
26 26 26 26 25 23 21 20 20 20 17 15 14 15 15 14 14 15 17 18 18 19 21 21 19 18 19 20 21 22 22 22 22 21 20 19 19 19 19 19 19 19 18 18 17 15 14 14 14 14 14 14 13 14 14 14 15 15 16 16 17 17 17 18 18 19 20 20 21 21 20 20 19 18 17 17 17 17 17 17 17 17 18 18 18 18 17
Wind_Direction
286 285 284 282 280 278 276 273 270 267 263 261 260 258 256 255 254 252 250 250 250 249 249 248 247 247 247 246 244 241 240 239 235 232 232 231 228 227 223 217 212 210 209 207 211 217 216 214 217 219 220 216 200 190 201 211 215 219 223 222 219 218 219 219 215 213 216 216 213 212 208 208 215 218 217 215 215 219 222 225 230 236 239 239 242 248 249
285 284 282 280 278 276 274 272 269 266 261 258 258 257 254 253 253 251 249 249 249 249 248 248 247 245 244 242 240 238 236 235 232 230 229 229 228 226 223 219 213 212 212 208 207 211 212 211 212 215 217 211 196 196 202 203 210 216 220 223 220 218 218 219 215 210 211 212 211 210 208 207 211 216 218 219 220 223 224 224 228 234 236 237 242 249 252
283 281 280 278 276 274 272 271 268 265 261 257 255 254 253 252 252 251 249 247 248 249 247 246 245 243 242 241 240 238 235 233 231 229 227 227 228 227 225 222 215 214 216 208 203 206 209 209 211 215 215 204 195 200 202 202 208 211 215 221 222 223 222 220 216 211 210 210 211 213 213 211 211 211 215 222 226 226 223 222 225 228 231 232 237 244 249
281 279 278 277 276 274 272 270 268 265 261 257 254 252 251 251 251 251 249 247 246 247 246 245 244 243 242 241 241 239 236 233 232 230 226 225 227 227 226 225 219 218 219 209 200 201 206 207 211 216 215 202 194 203 206 202 199 197 202 211 217 224 227 224 221 217 214 216 217 217 216 215 214 212 212 218 227 229 224 221 225 230 234 236 240 246 249
279 279 278 276 275 273 271 269 266 263 260 256 253 251 250 250 249 249 249 247 245 245 245 243 242 242 241 239 238 237 235 233 232 231 226 222 224 225 226 226 222 221 223 216 203 199 204 206 209 214 210 195 192 207 212 200 187 188 200 209 214 222 227 227 225 221 216 216 217 215 213 213 214 215 214 216 226 230 223 221 227 234 238 241 246 250 251
279 279 277 276 274 271 269 267 264 261 259 255 252 251 249 248 247 246 247 246 244 244 244 242 240 240 239 237 234 232 231 230 230 231 228 222 221 224 226 228 226 225 227 224 210 200 203 204 203 206 202 186 185 198 209 206 197 199 210 215 216 221 225 224 227 225 217 212 213 213 211 210 211 213 214 216 225 229 224 223 231 238 242 248 253 253 253
280 278 276 274 272 269 267 264 261 259 257 254 251 249 248 246 245 244 243 244 244 243 242 240 238 237 237 236 233 229 228 227 226 228 227 222 220 223 225 227 228 228 228 227 216 203 204 201 194 196 194 185 184 187 197 207 207 208 214 216 217 222 223 220 223 226 219 212 210 211 211 211 211 213 213 214 222 228 226 227 235 243 248 253 255 253 252
279 277 274 271 269 266 263 260 258 256 254 251 248 247 246 244 243 243 242 241 242 242 241 239 236 233 234 233 231 228 226 224 224 224 223 221 220 222 224 226 230 231 230 229 222 210 206 202 191 191 192 188 185 185 188 197 204 212 216 217 219 222 220 217 218 224 224 215 208 208 209 211 212 213 213 214 219 224 227 230 237 244 248 250 251 251 249
276 274 271 268 265 263 260 258 255 254 253 250 247 245 245 244 242 241 241 239 238 239 240 239 235 231 230 230 228 226 225 223 222 220 219 220 220 222 223 225 230 232 232 232 228 217 208 203 195 192 193 191 188 187 188 190 195 209 218 221 221 221 218 216 217 222 224 215 207 206 209 212 211 209 209 212 217 222 226 230 235 239 243 247 247 245 244
273 271 268 266 263 260 259 256 254 253 252 251 248 245 244 244 243 241 240 238 236 236 236 238 236 230 227 228 227 224 223 222 221 218 216 218 220 222 224 225 228 232 233 234 232 223 213 205 200 197 195 192 190 188 188 191 195 202 215 222 222 220 220 220 218 219 216 208 204 205 209 214 213 209 210 212 216 223 228 231 234 235 239 245 244 241 244
271 268 266 264 261 260 258 256 254 252 251 251 249 246 244 245 244 242 240 238 235 233 232 235 236 232 225 225 225 222 220 220 219 216 214 216 218 221 224 226 227 230 233 234 234 229 221 212 206 205 201 193 190 189 188 192 199 202 207 216 221 220 220 219 218 216 209 202 202 204 207 214 215 213 214 218 220 225 230 232 233 234 237 240 239 237 240
269 267 265 262 260 259 258 257 255 253 251 251 250 247 245 244 244 243 241 238 234 231 229 229 233 232 225 222 223 221 219 219 218 215 212 214 217 220 223 226 226 228 230 232 235 234 230 224 213 208 207 200 191 188 189 194 202 204 202 206 216 219 217 215 215 213 206 201 204 209 213 216 218 217 218 221 223 225 230 233 233 234 236 236 232 230 233
268 266 264 261 259 258 257 257 256 253 252 250 250 248 245 244 244 243 241 237 232 229 227 226 228 231 226 221 221 220 218 218 218 215 211 213 218 220 222 224 226 228 230 232 235 236 236 233 224 211 208 207 198 190 190 195 201 205 202 200 209 217 218 217 215 210 207 205 206 213 219 220 223 225 224 224 224 225 228 232 231 231 231 230 229 229 231
267 264 262 259 257 256 256 257 256 255 252 250 249 248 245 244 243 241 239 236 230 225 225 224 225 227 226 221 219 219 218 217 217 216 212 211 216 220 221 222 224 227 229 231 233 237 238 238 233 222 210 208 205 197 194 195 198 202 202 201 206 212 216 219 217 210 207 207 207 215 223 225 228 230 228 226 226 225 225 225 228 232 232 231 231 231 231
265 262 260 257 256 255 254 255 256 255 253 250 248 247 244 242 241 239 236 233 227 223 222 222 223 224 224 222 219 218 218 217 215 216 214 211 214 219 220 221 223 225 227 228 229 234 237 238 237 230 217 210 210 205 199 198 199 199 198 202 207 210 213 216 218 213 207 208 213 219 226 227 228 230 230 229 229 228 226 222 221 226 231 234 236 234 230
262 260 258 255 254 254 253 254 255 254 252 249 245 243 242 239 237 235 233 229 224 221 220 221 221 222 222 221 219 218 218 217 215 216 215 214 215 217 218 220 223 224 226 227 227 229 233 236 237 233 223 213 211 211 207 205 203 197 193 197 203 208 211 213 217 217 212 212 218 222 225 226 227 230 233 234 233 233 233 231 228 226 226 232 237 237 234
259 257 255 254 253 253 253 253 253 251 250 246 241 240 238 234 232 231 229 226 221 219 220 219 219 220 221 220 219 218 218 216 215 215 216 217 216 216 217 219 222 224 225 226 228 228 230 234 236 235 229 220 212 214 214 212 207 198 191 192 195 202 209 212 216 219 216 213 217 221 221 222 224 227 231 234 236 236 236 239 242 240 236 237 240 242 241
256 254 253 253 253 253 252 251 249 248 246 242 238 237 234 230 228 227 225 223 218 217 219 219 216 218 220 219 218 218 217 216 214 213 215 217 216 215 217 218 219 223 225 225 227 229 229 232 234 235 233 227 219 219 220 217 212 204 194 189 189 194 203 209 212 215 213 210 213 219 221 221 221 222 224 229 236 240 240 243 247 249 249 249 248 249 249
255 253 252 252 252 253 251 249 245 243 242 239 236 235 233 228 226 225 223 220 216 216 219 218 216 217 218 217 217 218 216 215 213 211 212 216 216 215 217 218 218 220 223 224 226 228 229 232 233 233 234 233 229 227 225 222 218 211 201 193 190 191 196 204 209 211 211 208 206 210 216 220 222 221 223 227 233 238 239 241 244 248 250 253 252 251 251
255 253 252 251 251 251 249 246 242 239 238 236 233 234 232 227 224 224 223 218 214 216 219 217 215 216 217 217 218 218 216 215 212 211 210 212 215 215 216 219 219 219 221 223 225 227 228 230 233 234 234 235 236 234 232 230 227 220 213 205 198 193 194 203 209 211 213 213 211 208 210 215 219 220 223 226 228 228 229 231 235 239 243 246 246 245 245
253 252 251 249 249 248 245 241 238 236 235 233 232 232 231 226 223 223 222 218 214 217 219 216 214 215 215 216 217 218 217 215 212 211 211 210 211 214 215 218 218 218 219 221 222 225 227 229 233 235 234 236 239 239 237 237 237 233 226 219 210 201 196 199 207 211 214 217 217 216 215 217 220 222 224 226 226 226 226 227 228 231 235 238 241 243 244
251 250 248 246 245 243 240 237 235 233 233 231 230 230 229 226 222 221 221 218 216 218 219 214 212 214 214 215 216 217 217 216 212 212 212 211 210 213 216 218 218 217 219 220 219 221 225 227 230 233 234 235 238 240 240 239 241 241 237 231 225 215 206 202 203 207 212 217 220 219 218 220 224 227 228 228 228 228 227 227 228 231 234 237 240 243 245
248 245 243 241 239 238 235 233 231 230 231 230 228 228 228 224 221 219 219 218 217 218 218 214 211 213 214 214 214 216 217 217 214 212 213 213 212 213 216 220 219 217 219 221 220 219 222 224 227 231 232 233 237 240 241 239 240 242 241 238 235 229 221 215 212 209 210 215 218 217 217 220 226 230 231 231 231 231 230 230 232 234 236 238 240 243 245
244 241 238 234 233 232 230 229 228 228 228 228 226 226 226 222 219 217 218 218 217 216 216 214 212 213 214 212 212 215 217 217 214 213 213 215 215 215 216 220 220 218 217 219 220 221 222 225 227 229 231 233 237 241 243 240 239 240 241 242 241 239 233 229 226 221 218 218 217 215 214 218 224 229 231 232 234 235 234 232 232 233 235 237 238 241 244
238 234 231 228 227 228 226 225 225 225 225 224 223 223 223 220 216 216 216 215 214 212 213 214 212 211 212 211 211 214 216 216 214 213 213 216 218 218 218 219 219 217 216 216 216 219 224 227 228 230 232 234 236 239 241 240 237 237 239 242 244 243 240 238 236 233 230 228 223 219 216 218 222 227 230 230 232 235 236 234 233 234 236 237 238 239 242
231 227 224 223 223 224 225 223 223 222 222 220 218 219 219 217 214 213 212 211 209 209 211 213 210 209 211 211 211 212 214 215 214 213 213 215 218 220 221 221 219 217 216 215 214 213 216 220 224 228 232 233 233 233 234 235 236 235 237 240 242 243 243 242 240 239 237 234 230 225 224 225 229 234 237 235 233 234 235 235 234 235 237 241 243 242 243
225 221 220 220 220 221 222 221 220 219 217 215 214 215 215 212 209 208 208 206 204 205 208 210 208 208 210 211 210 210 211 212 214 215 215 216 218 220 222 223 222 218 214 215 216 215 214 213 213 217 223 224 224 224 227 230 233 232 230 232 236 239 241 243 243 244 244 243 240 236 236 238 241 245 249 248 244 243 244 246 246 244 245 248 249 247 247
221 218 218 218 217 217 217 217 216 215 213 210 209 210 210 206 203 203 202 200 199 201 204 206 207 207 208 209 208 208 207 208 211 214 215 217 219 221 222 223 223 220 215 216 218 218 219 220 214 207 209 213 215 218 218 220 224 224 221 222 225 228 232 237 240 242 244 246 246 246 246 247 249 252 255 257 258 258 258 258 258 256 254 251 249 248 250
219 218 217 216 213 212 212 212 212 210 207 204 204 205 203 199 197 198 197 195 195 197 200 203 205 205 205 206 207 205 204 205 208 211 214 217 220 223 224 224 222 219 217 218 217 215 218 224 222 213 207 206 208 211 211 211 213 214 210 211 215 218 222 227 231 233 238 242 245 248 249 250 252 254 257 259 262 262 261 256 253 253 253 250 247 247 249
218 217 215 211 208 208 208 209 208 204 200 198 199 200 196 193 193 193 193 191 190 193 196 198 199 199 200 203 204 203 201 202 204 207 211 215 219 223 224 224 221 218 218 218 215 212 215 221 221 218 217 214 208 204 205 208 209 206 202 204 211 216 220 223 226 229 234 238 240 243 246 248 250 252 255 256 255 254 253 250 247 248 250 250 247 247 248
217 215 210 205 204 204 204 204 201 197 193 194 196 193 190 189 189 189 189 188 188 190 193 193 193 195 197 199 202 201 200 199 201 204 208 213 218 221 223 223 219 217 218 217 212 209 213 216 216 217 219 219 216 215 214 212 210 207 207 210 213 217 221 225 227 230 233 236 239 240 241 243 244 246 249 248 245 241 240 241 243 246 252 254 253 254 256
213 208 203 200 199 199 198 197 193 190 189 191 191 188 186 186 186 185 185 186 187 189 191 190 191 193 195 197 199 201 201 200 200 203 207 212 217 219 221 222 218 216 217 214 208 206 211 214 213 215 218 219 220 223 224 222 218 215 214 213 215 219 221 223 226 228 231 233 235 235 237 239 240 240 240 239 237 235 236 238 242 248 253 256 257 259 261
206 199 195 194 193 191 191 190 187 185 187 188 186 183 182 183 183 182 182 184 187 190 191 189 190 193 195 196 197 199 199 200 201 203 206 210 215 217 219 219 217 215 214 209 204 204 210 212 212 215 219 219 221 224 225 224 222 220 219 218 218 220 221 219 218 222 227 230 231 231 232 233 233 230 229 230 231 234 238 241 245 246 248 250 253 256 257
195 191 186 185 185 184 184 183 182 183 184 182 180 180 180 181 180 179 180 182 185 188 190 191 192 193 195 196 197 198 197 197 198 201 204 207 210 213 215 214 212 210 208 204 202 204 210 211 211 214 218 219 221 223 224 225 224 222 222 222 221 221 222 221 220 225 229 227 223 221 221 222 222 221 222 227 234 238 242 247 250 252 254 255 256 257 259
182 179 176 176 177 177 176 177 178 179 178 176 176 178 178 178 178 178 179 181 182 182 185 190 193 194 195 196 197 197 198 198 197 197 200 204 205 207 208 208 206 204 202 200 199 202 207 209 209 212 217 220 222 223 224 225 225 224 224 223 223 224 224 223 224 227 225 219 213 214 219 223 227 232 238 244 248 251 253 256 258 260 262 263 264 264 266
168 168 167 169 170 169 171 172 173 173 172 172 174 175 174 175 176 177 178 180 180 179 181 185 189 192 194 196 198 197 196 198 198 196 197 199 199 199 200 200 200 200 199 198 197 199 204 207 207 210 216 220 222 224 225 225 225 225 223 222 223 223 223 220 217 214 211 210 213 222 230 235 240 245 252 257 259 259 260 262 263 265 266 267 268 268 269
158 158 159 161 162 163 168 169 167 167 168 170 172 172 171 173 174 175 177 177 176 176 178 179 182 188 191 192 195 195 193 194 196 194 193 192 191 191 191 192 193 197 199 198 196 197 202 206 207 209 215 220 222 223 223 223 223 224 224 224 225 225 224 221 219 218 222 229 235 237 239 242 245 249 254 258 261 262 262 263 265 266 268 269 270 271 271
150 151 153 154 156 160 163 161 161 163 165 167 167 167 169 172 172 173 174 173 170 174 176 170 170 183 192 191 191 192 191 191 193 192 189 187 185 185 185 184 186 192 198 198 197 196 199 204 206 207 211 217 220 222 222 221 221 223 226 227 228 229 228 228 229 232 237 243 246 247 248 250 253 255 258 261 265 267 269 270 271 273 274 275 275 275 275
143 146 149 151 153 155 155 155 157 160 161 161 162 164 166 170 171 171 173 171 170 171 166 156 157 179 193 191 189 190 188 187 188 187 185 184 182 179 177 179 184 189 193 195 196 195 197 201 204 206 209 214 219 222 225 225 224 225 226 229 232 235 237 240 242 243 245 248 252 254 256 257 259 262 264 267 270 272 274 276 277 278 278 278 277 275 274
139 142 146 148 148 150 150 150 152 154 154 156 160 162 165 169 171 172 173 172 169 165 158 149 156 183 191 187 185 185 182 182 185 183 178 178 177 174 173 177 183 186 187 190 194 195 196 198 202 204 207 211 216 221 225 227 229 229 229 231 235 238 241 244 247 249 252 254 257 259 260 261 263 265 268 270 272 273 274 275 275 275 275 273 271 270 268
136 140 142 143 144 146 145 145 147 148 149 152 156 159 163 167 169 171 173 170 168 165 160 152 159 179 185 184 182 177 172 176 181 178 173 173 173 172 173 179 184 185 186 188 191 192 192 193 197 201 205 209 213 218 223 226 229 231 231 232 235 237 240 243 247 250 254 257 259 262 264 266 268 270 272 273 273 273 273 273 274 274 274 273 272 270 269
132 137 138 139 141 142 139 140 142 144 146 149 151 154 160 164 167 169 169 166 165 165 162 160 165 174 179 181 178 171 167 170 172 169 167 169 170 170 172 178 183 185 186 188 191 191 190 189 191 196 201 204 207 212 217 221 225 228 229 231 234 237 241 245 249 253 257 261 264 266 268 270 271 271 271 271 272 272 273 274 275 275 276 275 275 274 274
127 135 136 137 139 137 136 137 140 142 144 145 147 151 157 161 165 167 165 163 163 163 161 164 172 173 172 171 168 164 165 167 164 158 157 160 164 169 173 177 182 185 185 186 190 192 192 190 190 193 197 200 202 206 211 215 220 224 227 229 234 239 244 249 253 256 259 262 264 265 267 267 268 269 270 272 273 274 275 275 275 275 275 276 276 276 276
126 134 135 135 136 135 135 137 139 141 143 144 146 150 152 153 157 160 159 161 164 163 161 165 169 166 163 164 165 163 163 162 157 155 156 156 158 164 170 174 177 179 180 183 189 192 193 192 191 194 198 200 203 206 210 213 218 223 227 231 236 241 246 250 253 256 258 260 261 263 265 267 270 272 273 275 276 276 276 276 276 276 276 276 277 277 278
130 133 134 134 135 135 137 138 138 140 142 142 142 144 143 143 147 152 153 159 165 166 166 168 165 160 158 164 165 163 161 158 155 157 161 161 159 161 164 166 167 167 171 179 186 188 188 189 189 190 192 195 199 205 209 213 218 223 227 232 237 240 244 248 251 254 258 260 262 265 267 270 271 273 274 275 275 275 275 275 276 276 277 277 278 279 279
131 132 134 135 135 136 137 137 137 139 139 137 135 131 125 122 131 139 142 152 161 165 168 170 164 156 157 164 164 160 159 159 160 162 163 163 165 166 165 165 166 167 173 182 186 184 183 185 187 187 189 192 197 203 208 213 217 223 227 232 236 239 243 246 249 253 257 260 263 266 269 271 272 274 275 276 276 277 278 279 280 282 283 283 283 284 285
131 133 135 135 134 134 133 131 132 135 134 133 132 127 119 116 127 133 135 147 157 160 166 170 166 158 157 163 164 163 162 164 166 167 164 163 167 169 168 172 179 182 183 186 186 183 182 185 187 189 192 196 201 207 212 216 221 225 230 234 238 242 245 248 251 255 258 262 265 268 270 272 274 275 277 279 281 283 285 286 287 288 289 290 291 293 294
129 131 133 132 131 129 125 122 127 135 136 134 132 126 121 130 143 139 134 148 159 162 166 170 168 161 159 162 165 166 166 166 167 167 165 164 169 173 174 177 183 186 186 186 185 185 187 191 195 198 200 203 207 212 216 219 223 227 231 236 240 245 249 253 257 261 264 267 270 271 273 275 278 280 282 285 287 288 289 289 289 290 292 294 296 297 298
124 125 128 130 129 126 120 119 131 143 143 138 133 127 129 143 155 149 141 151 161 165 168 170 168 162 158 160 163 165 165 164 164 167 169 171 175 178 178 179 181 182 183 185 187 189 192 196 199 201 203 205 209 213 218 221 225 230 234 240 245 250 254 259 262 266 268 270 272 275 278 282 285 287 288 289 289 289 288 288 289 290 292 294 296 296 297
120 124 131 133 130 124 119 124 139 149 148 142 137 136 140 148 154 151 148 154 159 161 163 166 165 158 155 158 160 162 163 165 167 171 175 179 180 178 177 178 180 181 183 187 190 194 198 200 202 203 204 207 212 217 222 227 232 236 240 244 248 252 256 259 263 266 269 272 276 281 285 287 287 286 286 286 287 286 287 288 290 292 292 292 293 294 296
124 131 137 135 130 124 123 132 146 153 151 145 142 142 142 143 144 145 147 150 151 152 156 160 160 155 153 156 160 163 166 169 172 174 176 179 180 178 177 178 180 182 186 190 194 198 201 203 206 207 208 211 216 221 226 230 235 238 242 246 249 252 257 262 267 271 275 279 282 284 285 283 281 281 282 284 286 287 288 290 291 290 289 288 290 292 296
128 131 133 132 131 130 133 140 148 152 150 145 144 146 145 139 136 140 143 143 142 145 150 154 156 155 153 156 160 164 167 170 171 172 174 177 178 179 179 181 183 186 189 193 197 201 203 204 205 207 210 215 221 225 230 234 237 241 246 251 254 258 263 269 274 279 282 283 283 281 278 276 275 276 279 281 282 283 284 285 285 284 284 284 286 289 293
Height
5712 5711 5710 5709 5709 5709 5709 5710 5710 5712 5713 5712 5713 5714 5715 5716 5716 5716 5719 5720 5720 5722 5723 5724 5727 5729 5732 5735 5736 5737 5739 5742 5744 5745 5745 5747 5750 5752 5754 5756 5759 5760 5762 5764 5764 5764 5766 5768 5770 5771 5772 5774 5777 5780 5784 5789 5794 5795 5795 5798 5802 5804 5805 5808 5813 5818 5821 5826 5828 5830 5834 5838 5839 5841 5843 5846 5847 5850 5852 5853 5856 5857 5858 5860 5861 5861 5862
5701 5701 5700 5699 5699 5699 5699 5700 5700 5702 5704 5704 5704 5705 5707 5708 5707 5708 5711 5712 5713 5715 5717 5718 5721 5723 5725 5726 5728 5730 5732 5735 5738 5739 5740 5742 5745 5747 5748 5750 5753 5755 5755 5756 5757 5760 5762 5766 5768 5767 5767 5771 5775 5777 5779 5783 5788 5791 5793 5796 5798 5799 5800 5804 5809 5813 5816 5819 5822 5824 5827 5830 5832 5835 5839 5842 5845 5848 5850 5851 5853 5853 5854 5857 5858 5857 5859
5691 5690 5689 5689 5689 5689 5689 5690 5691 5693 5694 5695 5696 5696 5698 5700 5700 5700 5702 5705 5706 5707 5709 5712 5713 5715 5717 5719 5722 5724 5727 5730 5732 5734 5735 5737 5740 5743 5744 5746 5747 5748 5749 5749 5752 5755 5758 5761 5763 5763 5764 5768 5771 5773 5775 5778 5782 5788 5792 5795 5796 5796 5797 5800 5802 5805 5807 5810 5814 5818 5823 5826 5828 5830 5835 5839 5842 5844 5846 5847 5848 5848 5850 5852 5854 5854 5857
5680 5679 5679 5679 5679 5679 5680 5681 5682 5683 5685 5687 5687 5688 5690 5691 5692 5692 5693 5696 5699 5699 5701 5704 5707 5708 5711 5714 5717 5720 5722 5725 5726 5728 5731 5733 5736 5738 5740 5742 5742 5744 5744 5744 5745 5748 5751 5755 5758 5761 5764 5767 5768 5771 5773 5774 5778 5784 5790 5793 5794 5794 5795 5796 5799 5802 5805 5809 5814 5820 5824 5826 5827 5828 5831 5835 5838 5840 5842 5843 5843 5845 5847 5848 5850 5852 5855
5670 5669 5669 5669 5669 5670 5670 5671 5672 5674 5676 5678 5679 5680 5682 5683 5684 5685 5685 5687 5691 5692 5694 5697 5700 5701 5704 5708 5711 5714 5717 5719 5720 5722 5725 5728 5730 5733 5735 5736 5737 5738 5739 5739 5740 5743 5747 5751 5755 5759 5761 5763 5765 5768 5771 5774 5776 5781 5786 5789 5790 5791 5791 5793 5796 5800 5805 5811 5815 5819 5821 5823 5826 5828 5829 5832 5834 5836 5837 5837 5839 5842 5844 5845 5847 5850 5852
5660 5660 5660 5660 5660 5660 5661 5662 5663 5664 5666 5669 5670 5671 5673 5674 5676 5678 5677 5678 5682 5684 5686 5690 5692 5695 5697 5700 5704 5707 5710 5713 5714 5716 5719 5723 5726 5728 5729 5730 5730 5732 5733 5734 5736 5740 5744 5748 5750 5754 5758 5760 5761 5765 5769 5772 5773 5776 5779 5782 5785 5787 5789 5792 5794 5797 5802 5808 5812 5815 5818 5820 5823 5824 5826 5829 5831 5832 5833 5835 5838 5840 5840 5842 5846 5848 5849
5650 5650 5650 5650 5650 5650 5651 5652 5653 5654 5655 5659 5661 5662 5663 5665 5667 5669 5670 5671 5673 5675 5678 5681 5685 5687 5690 5693 5697 5700 5703 5706 5708 5710 5714 5718 5721 5721 5722 5723 5724 5725 5726 5729 5733 5737 5740 5742 5744 5750 5756 5759 5758 5761 5765 5768 5770 5771 5773 5776 5780 5783 5785 5789 5792 5795 5799 5803 5808 5812 5815 5817 5819 5821 5823 5825 5827 5828 5830 5833 5835 5836 5837 5840 5842 5844 5845
5639 5639 5640 5640 5640 5640 5640 5642 5643 5644 5645 5648 5651 5652 5654 5656 5658 5660 5662 5664 5665 5666 5668 5673 5677 5680 5682 5686 5689 5693 5696 5699 5702 5705 5708 5712 5713 5714 5717 5719 5720 5721 5723 5726 5730 5734 5737 5741 5743 5748 5754 5757 5757 5759 5761 5764 5767 5768 5770 5773 5777 5779 5781 5785 5789 5792 5794 5798 5804 5808 5811 5813 5816 5817 5820 5822 5824 5826 5828 5831 5832 5833 5835 5837 5839 5840 5842
5628 5628 5629 5629 5629 5629 5630 5631 5633 5634 5635 5637 5641 5643 5644 5646 5649 5651 5653 5656 5657 5658 5660 5664 5669 5673 5675 5678 5682 5686 5690 5693 5695 5699 5702 5704 5706 5708 5712 5714 5715 5717 5720 5723 5727 5732 5736 5739 5742 5745 5749 5753 5755 5756 5759 5762 5764 5765 5767 5770 5772 5775 5778 5781 5784 5786 5789 5794 5800 5804 5808 5810 5811 5812 5815 5818 5820 5822 5825 5827 5828 5830 5832 5833 5834 5835 5839
5618 5618 5619 5620 5620 5620 5620 5622 5623 5625 5626 5627 5630 5634 5636 5637 5640 5643 5645 5648 5649 5651 5653 5656 5660 5665 5668 5671 5675 5680 5684 5686 5689 5693 5696 5698 5702 5705 5706 5709 5711 5713 5716 5719 5722 5728 5734 5738 5740 5743 5746 5749 5752 5754 5756 5759 5761 5762 5764 5765 5768 5771 5774 5777 5780 5782 5784 5790 5796 5801 5805 5805 5804 5807 5810 5813 5815 5818 5821 5823 5824 5826 5828 5829 5830 5833 5837
5609 5609 5610 5611 5611 5611 5611 5612 5614 5616 5617 5618 5620 5624 5627 5628 5631 5634 5637 5640 5642 5644 5647 5649 5651 5656 5661 5664 5668 5673 5677 5679 5682 5687 5690 5693 5697 5700 5701 5704 5707 5709 5712 5715 5718 5724 5730 5735 5737 5739 5742 5745 5747 5750 5753 5756 5758 5759 5761 5762 5765 5767 5770 5773 5776 5779 5782 5787 5793 5798 5799 5797 5799 5803 5807 5809 5811 5814 5816 5818 5820 5822 5824 5825 5827 5831 5835
5600 5601 5601 5602 5602 5603 5603 5604 5605 5607 5608 5610 5612 5615 5618 5620 5623 5625 5628 5632 5635 5636 5640 5643 5644 5648 5654 5658 5661 5666 5670 5673 5676 5681 5685 5687 5690 5694 5696 5699 5703 5705 5708 5711 5715 5719 5724 5730 5733 5735 5737 5740 5743 5745 5749 5752 5754 5755 5757 5759 5761 5764 5766 5769 5773 5777 5780 5784 5789 5792 5792 5793 5797 5801 5803 5805 5807 5809 5811 5813 5816 5818 5820 5822 5824 5827 5829
5592 5593 5593 5594 5594 5595 5595 5595 5596 5598 5600 5602 5603 5606 5609 5612 5615 5617 5620 5624 5628 5630 5633 5637 5638 5641 5647 5652 5655 5659 5663 5667 5670 5674 5679 5682 5685 5688 5691 5695 5698 5702 5705 5708 5711 5714 5717 5723 5728 5731 5733 5736 5739 5741 5744 5747 5750 5752 5754 5756 5758 5761 5764 5767 5770 5774 5777 5779 5783 5786 5788 5791 5794 5796 5798 5800 5802 5804 5807 5809 5811 5812 5815 5818 5819 5821 5824
5583 5584 5585 5585 5586 5587 5587 5588 5589 5590 5592 5594 5595 5598 5601 5605 5607 5610 5613 5617 5621 5624 5626 5630 5633 5636 5641 5645 5649 5653 5657 5661 5665 5668 5672 5677 5680 5682 5686 5690 5694 5698 5701 5704 5708 5710 5712 5716 5722 5727 5730 5732 5735 5737 5739 5742 5745 5747 5750 5753 5755 5758 5761 5765 5768 5771 5773 5776 5780 5782 5785 5787 5788 5790 5793 5795 5796 5798 5802 5805 5807 5808 5811 5813 5815 5817 5819
5575 5576 5577 5578 5578 5579 5580 5581 5582 5583 5585 5587 5588 5590 5594 5598 5600 5603 5606 5611 5615 5618 5620 5624 5627 5630 5634 5639 5643 5648 5652 5656 5660 5663 5666 5671 5675 5677 5681 5686 5690 5693 5696 5700 5704 5706 5707 5710 5715 5721 5726 5728 5730 5733 5736 5738 5740 5743 5746 5750 5753 5755 5758 5762 5765 5768 5771 5775 5777 5779 5780 5781 5783 5785 5787 5789 5791 5793 5797 5800 5802 5804 5807 5809 5811 5813 5815
5567 5568 5569 5570 5571 5572 5573 5575 5575 5577 5578 5580 5582 5583 5587 5591 5594 5597 5600 5604 5608 5612 5615 5618 5621 5625 5629 5634 5638 5642 5646 5650 5654 5658 5662 5666 5669 5673 5677 5682 5685 5688 5691 5695 5699 5701 5703 5706 5709 5715 5721 5724 5726 5729 5731 5733 5735 5739 5742 5745 5749 5752 5755 5759 5762 5765 5769 5772 5774 5775 5776 5777 5780 5781 5782 5785 5787 5789 5794 5798 5798 5799 5802 5804 5806 5808 5811
5559 5560 5561 5563 5564 5566 5567 5568 5569 5571 5572 5574 5576 5577 5580 5585 5588 5591 5594 5598 5603 5607 5609 5612 5616 5621 5624 5628 5632 5636 5640 5644 5649 5654 5658 5661 5665 5669 5673 5677 5681 5684 5686 5690 5694 5697 5700 5702 5704 5709 5715 5719 5721 5723 5726 5729 5731 5734 5738 5740 5743 5748 5752 5756 5759 5762 5765 5769 5770 5771 5773 5774 5777 5779 5780 5781 5783 5786 5791 5794 5794 5796 5799 5801 5802 5804 5806
5552 5553 5554 5556 5558 5559 5560 5562 5564 5565 5567 5569 5570 5572 5575 5579 5582 5585 5589 5593 5598 5602 5604 5607 5612 5615 5618 5622 5626 5630 5634 5638 5643 5649 5653 5657 5661 5666 5669 5672 5676 5679 5682 5686 5689 5693 5696 5698 5701 5705 5709 5713 5717 5718 5721 5724 5727 5730 5733 5736 5738 5743 5747 5751 5755 5757 5760 5764 5766 5768 5769 5771 5774 5776 5777 5777 5779 5784 5788 5789 5790 5793 5795 5796 5798 5800 5802
5545 5546 5548 5550 5551 5553 5555 5556 5558 5560 5562 5564 5565 5567 5569 5574 5577 5581 5584 5588 5593 5597 5599 5602 5607 5610 5613 5618 5621 5624 5628 5633 5638 5643 5648 5652 5657 5662 5665 5668 5672 5675 5678 5682 5685 5688 5691 5694 5698 5701 5704 5707 5711 5713 5715 5719 5722 5726 5729 5732 5734 5738 5742 5746 5749 5751 5755 5758 5761 5763 5765 5767 5770 5772 5773 5775 5778 5781 5783 5784 5787 5789 5790 5792 5795 5797 5798
5538 5540 5542 5544 5546 5548 5550 5551 5553 5555 5557 5559 5561 5562 5565 5569 5572 5576 5579 5583 5588 5592 5594 5597 5602 5605 5609 5614 5616 5619 5623 5628 5633 5638 5643 5647 5652 5657 5661 5664 5668 5672 5675 5678 5681 5684 5687 5690 5693 5697 5700 5702 5704 5708 5712 5715 5718 5722 5725 5728 5731 5734 5738 5741 5744 5747 5750 5753 5755 5759 5761 5762 5765 5768 5770 5772 5775 5777 5779 5781 5783 5786 5787 5789 5792 5794 5795
5532 5534 5536 5539 5541 5543 5545 5547 5548 5551 5552 5554 5556 5558 5560 5564 5568 5571 5575 5579 5585 5588 5589 5593 5597 5602 5605 5608 5611 5614 5618 5624 5629 5634 5638 5643 5648 5652 5656 5659 5663 5668 5671 5675 5678 5680 5683 5687 5690 5692 5696 5698 5701 5705 5709 5712 5715 5718 5722 5725 5729 5731 5734 5737 5740 5743 5746 5748 5751 5754 5757 5759 5762 5765 5767 5769 5770 5772 5775 5777 5779 5782 5784 5786 5788 5790 5792
5527 5529 5531 5534 5536 5538 5540 5542 5544 5546 5548 5550 5553 5555 5557 5560 5564 5568 5572 5576 5580 5583 5585 5588 5593 5597 5601 5604 5607 5612 5616 5621 5627 5631 5635 5640 5644 5648 5651 5655 5659 5663 5666 5669 5673 5676 5679 5683 5686 5688 5692 5695 5697 5701 5705 5708 5711 5714 5719 5723 5727 5729 5731 5734 5736 5738 5741 5744 5747 5751 5753 5756 5760 5761 5763 5765 5766 5768 5770 5773 5775 5778 5780 5782 5784 5785 5787
5522 5525 5527 5529 5532 5534 5536 5538 5540 5542 5544 5546 5549 5552 5554 5557 5561 5565 5568 5572 5575 5578 5581 5585 5590 5594 5597 5601 5605 5610 5613 5617 5622 5627 5632 5636 5640 5644 5648 5651 5655 5659 5662 5665 5668 5672 5675 5679 5682 5685 5689 5692 5694 5697 5701 5705 5708 5711 5716 5720 5724 5726 5729 5732 5734 5736 5739 5742 5745 5747 5749 5753 5755 5756 5757 5760 5762 5763 5765 5768 5770 5773 5775 5777 5779 5780 5781
5518 5521 5523 5525 5528 5530 5532 5534 5536 5539 5541 5543 5546 5549 5551 5554 5558 5562 5565 5568 5572 5575 5579 5583 5587 5591 5594 5599 5603 5607 5610 5613 5618 5624 5629 5633 5636 5640 5644 5648 5651 5655 5659 5663 5666 5669 5673 5676 5680 5683 5687 5690 5692 5695 5698 5702 5705 5709 5713 5717 5719 5722 5726 5729 5731 5734 5737 5739 5740 5742 5744 5747 5749 5751 5753 5755 5757 5759 5761 5764 5766 5767 5769 5771 5773 5775 5776
5515 5517 5520 5522 5524 5526 5529 5531 5533 5536 5538 5541 5544 5546 5548 5552 5556 5559 5562 5565 5569 5573 5576 5580 5584 5588 5592 5596 5600 5603 5606 5610 5615 5620 5625 5629 5632 5636 5640 5644 5648 5652 5656 5660 5664 5667 5671 5675 5678 5681 5684 5687 5691 5693 5696 5699 5702 5706 5710 5713 5715 5718 5723 5726 5728 5731 5733 5735 5736 5737 5739 5742 5744 5747 5749 5751 5753 5755 5758 5760 5761 5763 5764 5766 5768 5770 5771
5512 5514 5517 5519 5521 5524 5526 5528 5531 5533 5535 5538 5541 5544 5546 5550 5553 5557 5560 5563 5567 5571 5574 5577 5582 5587 5590 5593 5596 5600 5604 5608 5612 5617 5621 5625 5629 5633 5637 5641 5645 5649 5653 5657 5661 5664 5668 5671 5674 5677 5680 5684 5686 5688 5691 5696 5699 5702 5705 5708 5710 5714 5718 5720 5723 5727 5729 5730 5731 5733 5735 5737 5740 5742 5744 5746 5749 5751 5753 5754 5756 5758 5761 5763 5765 5766 5767
5510 5512 5514 5517 5519 5521 5524 5526 5529 5531 5533 5536 5539 5542 5545 5548 5551 5554 5558 5561 5565 5569 5572 5576 5580 5584 5586 5590 5594 5598 5602 5606 5610 5614 5618 5622 5626 5630 5634 5638 5642 5645 5650 5654 5657 5661 5665 5669 5671 5674 5677 5680 5682 5684 5688 5693 5696 5699 5702 5704 5707 5710 5713 5715 5719 5723 5725 5726 5727 5729 5731 5734 5736 5738 5739 5741 5744 5746 5748 5750 5752 5755 5757 5758 5759 5760 5761
5508 5510 5512 5515 5517 5519 5522 5524 5527 5529 5532 5534 5537 5540 5543 5547 5550 5553 5556 5560 5564 5567 5570 5574 5578 5581 5584 5588 5592 5596 5600 5604 5608 5612 5615 5619 5623 5627 5630 5635 5639 5643 5647 5650 5654 5659 5663 5666 5668 5672 5675 5677 5679 5681 5685 5690 5693 5695 5698 5701 5704 5707 5709 5712 5716 5719 5720 5721 5724 5726 5729 5731 5733 5735 5736 5737 5739 5741 5743 5745 5748 5750 5751 5751 5752 5754 5756
5507 5509 5511 5513 5515 5518 5520 5523 5525 5528 5530 5533 5536 5539 5542 5545 5548 5552 5555 5559 5562 5566 5569 5573 5576 5579 5583 5586 5590 5594 5598 5602 5606 5610 5613 5617 5620 5624 5627 5632 5637 5641 5644 5647 5652 5657 5661 5663 5665 5668 5671 5674 5677 5679 5682 5686 5690 5692 5695 5698 5701 5704 5706 5709 5712 5714 5716 5718 5720 5722 5725 5727 5729 5731 5733 5734 5735 5736 5738 5740 5742 5744 5744 5745 5747 5750 5752
5506 5508 5510 5512 5514 5516 5519 5521 5524 5526 5528 5531 5534 5537 5541 5544 5547 5550 5554 5558 5561 5565 5568 5571 5575 5578 5581 5584 5588 5593 5597 5601 5605 5608 5612 5615 5618 5621 5625 5630 5635 5639 5642 5645 5650 5655 5658 5660 5663 5666 5668 5671 5675 5677 5679 5682 5685 5688 5691 5696 5699 5701 5704 5706 5708 5711 5713 5715 5717 5719 5721 5723 5724 5727 5729 5730 5731 5732 5733 5735 5737 5739 5740 5741 5743 5744 5746
5505 5507 5509 5511 5513 5515 5518 5520 5522 5525 5528 5531 5533 5536 5540 5543 5546 5550 5553 5557 5560 5564 5567 5570 5573 5577 5580 5584 5588 5592 5596 5600 5604 5607 5610 5613 5616 5619 5623 5628 5632 5636 5640 5643 5648 5652 5655 5658 5661 5664 5666 5669 5672 5674 5676 5678 5681 5685 5689 5694 5697 5699 5701 5703 5705 5707 5709 5711 5714 5716 5717 5718 5720 5722 5725 5726 5727 5728 5729 5731 5733 5735 5736 5737 5738 5739 5741
5504 5506 5508 5511 5513 5515 5517 5519 5521 5524 5527 5530 5533 5536 5539 5543 5546 5550 5553 5556 5560 5563 5566 5570 5573 5576 5580 5584 5587 5591 5595 5599 5602 5605 5608 5611 5614 5617 5621 5625 5629 5633 5637 5641 5645 5649 5652 5655 5659 5661 5664 5667 5670 5672 5675 5678 5681 5684 5687 5691 5693 5696 5697 5699 5701 5703 5705 5708 5710 5712 5713 5715 5717 5718 5721 5722 5724 5725 5726 5728 5729 5731 5733 5734 5734 5735 5737
5504 5506 5508 5510 5512 5514 5516 5519 5521 5524 5527 5530 5533 5536 5540 5543 5546 5550 5553 5557 5560 5563 5566 5570 5573 5576 5580 5583 5587 5590 5594 5597 5600 5604 5607 5609 5612 5615 5619 5623 5627 5631 5634 5638 5642 5646 5649 5653 5656 5658 5661 5664 5668 5671 5674 5677 5680 5682 5685 5688 5690 5692 5694 5695 5697 5699 5702 5704 5706 5707 5709 5711 5713 5714 5716 5718 5720 5721 5722 5724 5725 5727 5729 5730 5731 5732 5733
5505 5507 5508 5510 5512 5514 5516 5519 5521 5524 5527 5530 5533 5536 5540 5543 5546 5550 5553 5557 5560 5563 5567 5570 5573 5576 5579 5583 5586 5589 5592 5595 5598 5601 5605 5608 5611 5614 5617 5621 5624 5628 5632 5636 5639 5643 5646 5649 5652 5655 5659 5663 5666 5670 5673 5676 5678 5680 5683 5685 5688 5690 5692 5694 5696 5698 5700 5701 5703 5704 5706 5708 5709 5710 5712 5714 5716 5718 5719 5721 5722 5724 5725 5726 5727 5728 5729
5505 5507 5509 5511 5513 5515 5517 5519 5522 5524 5527 5530 5533 5537 5540 5544 5547 5550 5554 5557 5560 5564 5567 5570 5573 5576 5579 5582 5585 5588 5592 5594 5597 5600 5603 5606 5609 5612 5615 5619 5622 5626 5629 5632 5635 5638 5640 5644 5649 5654 5658 5661 5665 5668 5672 5674 5676 5679 5681 5684 5686 5689 5691 5693 5695 5697 5698 5699 5701 5702 5703 5705 5706 5707 5709 5711 5714 5715 5717 5718 5720 5721 5722 5722 5723 5724 5725
5506 5508 5510 5511 5513 5515 5518 5520 5522 5525 5528 5531 5534 5538 5541 5545 5548 5551 5554 5557 5561 5564 5567 5570 5573 5576 5579 5582 5586 5589 5592 5594 5597 5600 5602 5605 5608 5611 5614 5617 5620 5623 5625 5627 5630 5633 5638 5644 5650 5654 5657 5659 5663 5667 5670 5673 5674 5676 5678 5681 5684 5686 5689 5692 5693 5694 5695 5697 5699 5700 5701 5702 5704 5705 5707 5709 5711 5712 5714 5715 5716 5717 5718 5718 5719 5720 5720
5507 5509 5511 5512 5514 5516 5519 5521 5523 5526 5529 5532 5536 5539 5542 5546 5549 5552 5555 5558 5561 5564 5567 5570 5574 5577 5580 5582 5585 5588 5591 5594 5596 5598 5601 5604 5606 5609 5612 5615 5617 5619 5621 5625 5629 5634 5639 5645 5650 5653 5655 5657 5661 5664 5667 5670 5672 5674 5676 5678 5681 5683 5686 5689 5691 5692 5693 5695 5696 5697 5699 5700 5702 5703 5705 5706 5708 5709 5710 5711 5712 5713 5714 5714 5714 5715 5715
5508 5510 5512 5513 5515 5517 5519 5522 5525 5527 5530 5534 5537 5541 5544 5547 5550 5553 5556 5559 5562 5565 5568 5571 5575 5578 5580 5582 5585 5588 5591 5593 5596 5598 5600 5603 5605 5608 5610 5613 5615 5618 5621 5626 5630 5634 5639 5643 5647 5649 5652 5655 5657 5661 5664 5667 5669 5672 5674 5677 5679 5681 5684 5686 5688 5689 5691 5692 5693 5694 5696 5698 5699 5701 5702 5703 5704 5704 5705 5706 5707 5708 5708 5709 5709 5709 5709
5510 5511 5513 5515 5516 5518 5521 5523 5526 5529 5532 5536 5539 5542 5545 5548 5551 5554 5557 5559 5562 5565 5568 5572 5575 5578 5579 5582 5584 5587 5590 5593 5596 5598 5600 5602 5604 5607 5609 5612 5614 5618 5622 5626 5629 5633 5637 5640 5643 5646 5649 5652 5655 5658 5661 5664 5667 5670 5673 5675 5677 5680 5682 5683 5685 5686 5687 5688 5690 5691 5693 5694 5695 5696 5697 5698 5698 5699 5700 5700 5701 5702 5702 5703 5703 5703 5704
5512 5513 5515 5516 5518 5520 5523 5526 5529 5532 5535 5538 5541 5543 5546 5549 5552 5555 5557 5560 5563 5566 5568 5572 5575 5577 5579 5581 5585 5587 5590 5593 5595 5597 5599 5602 5604 5606 5609 5611 5614 5618 5622 5625 5628 5631 5635 5639 5642 5645 5647 5650 5653 5656 5659 5661 5664 5668 5671 5673 5675 5677 5679 5680 5681 5682 5683 5685 5686 5688 5689 5690 5691 5692 5692 5693 5694 5694 5694 5695 5695 5696 5696 5697 5697 5698 5698
5513 5515 5516 5518 5520 5523 5525 5528 5531 5534 5537 5540 5542 5545 5548 5551 5553 5556 5558 5560 5563 5566 5568 5572 5576 5578 5579 5582 5585 5587 5590 5593 5595 5597 5599 5601 5603 5606 5609 5612 5615 5618 5622 5625 5628 5631 5634 5638 5641 5644 5646 5648 5652 5654 5657 5660 5663 5666 5668 5670 5672 5673 5674 5675 5677 5678 5680 5682 5683 5684 5685 5685 5686 5686 5687 5688 5688 5688 5689 5689 5689 5690 5690 5691 5691 5691 5692
5516 5517 5519 5521 5523 5526 5528 5531 5534 5536 5539 5541 5544 5547 5550 5552 5554 5556 5558 5561 5563 5566 5569 5573 5576 5578 5579 5582 5585 5587 5590 5593 5595 5597 5599 5602 5604 5607 5610 5613 5616 5619 5623 5626 5629 5632 5634 5637 5640 5643 5646 5648 5651 5654 5656 5659 5661 5663 5665 5666 5667 5668 5670 5671 5673 5675 5677 5678 5679 5679 5680 5680 5681 5682 5682 5682 5683 5683 5684 5684 5684 5684 5685 5685 5685 5685 5685
5519 5520 5522 5524 5526 5529 5531 5533 5536 5539 5541 5543 5546 5549 5551 5554 5556 5558 5560 5562 5565 5567 5570 5574 5576 5579 5581 5583 5586 5588 5591 5594 5596 5598 5600 5603 5606 5608 5611 5614 5617 5620 5624 5627 5630 5632 5635 5637 5640 5643 5645 5648 5650 5653 5655 5657 5659 5660 5661 5663 5664 5665 5667 5669 5671 5672 5673 5674 5675 5675 5675 5676 5677 5677 5678 5678 5678 5679 5679 5680 5680 5680 5680 5680 5680 5680 5679
5522 5524 5525 5527 5530 5532 5534 5537 5539 5542 5544 5547 5549 5551 5554 5556 5558 5560 5562 5565 5567 5569 5572 5574 5577 5580 5582 5584 5586 5589 5592 5595 5597 5600 5602 5604 5607 5609 5612 5614 5617 5621 5625 5628 5630 5632 5634 5637 5640 5642 5645 5647 5649 5651 5653 5654 5656 5657 5659 5661 5662 5664 5665 5667 5668 5669 5670 5671 5671 5672 5672 5673 5673 5674 5674 5675 5675 5675 5675 5675 5676 5676 5676 5676 5675 5675 5674
5526 5528 5530 5532 5534 5536 5538 5540 5543 5546 5548 5550 5553 5555 5557 5559 5560 5562 5564 5567 5569 5571 5573 5576 5578 5581 5583 5585 5587 5589 5592 5595 5598 5601 5604 5606 5608 5611 5613 5616 5619 5622 5626 5629 5630 5632 5634 5637 5639 5642 5644 5646 5648 5650 5651 5652 5654 5656 5658 5659 5661 5662 5663 5665 5665 5666 5667 5667 5668 5668 5669 5670 5670 5670 5671 5671 5671 5672 5672 5672 5672 5672 5672 5672 5671 5671 5670
5530 5532 5534 5536 5538 5540 5542 5544 5547 5549 5551 5553 5556 5558 5560 5561 5563 5565 5566 5569 5571 5573 5575 5577 5580 5582 5584 5586 5589 5591 5593 5596 5598 5601 5605 5608 5610 5612 5615 5618 5620 5623 5626 5629 5631 5633 5635 5637 5639 5642 5644 5646 5647 5649 5650 5652 5654 5656 5657 5658 5659 5660 5661 5662 5663 5664 5664 5664 5665 5666 5666 5667 5667 5667 5667 5668 5668 5668 5668 5668 5668 5668 5668 5667 5666 5666 5665
5533 5536 5538 5540 5542 5544 5547 5549 5551 5554 5556 5557 5558 5560 5562 5565 5567 5568 5569 5571 5573 5575 5577 5579 5582 5584 5585 5588 5591 5593 5595 5597 5600 5603 5606 5608 5611 5614 5617 5619 5621 5623 5626 5629 5631 5633 5635 5637 5639 5641 5643 5645 5647 5649 5650 5652 5653 5654 5655 5657 5658 5659 5659 5660 5661 5661 5662 5662 5663 5663 5664 5664 5664 5664 5664 5664 5664 5664 5664 5664 5664 5664 5663 5662 5661 5661 5660
5537 5540 5542 5544 5547 5549 5551 5553 5556 5558 5559 5560 5561 5562 5564 5567 5569 5570 5571 5573 5575 5577 5578 5581 5584 5585 5587 5589 5592 5594 5596 5599 5602 5605 5607 5609 5612 5614 5617 5619 5622 5624 5626 5629 5631 5633 5635 5637 5639 5641 5643 5645 5646 5648 5649 5650 5652 5653 5654 5655 5656 5657 5657 5658 5658 5659 5659 5660 5660 5660 5661 5661 5661 5661 5661 5661 5661 5661 5660 5660 5660 5660 5659 5658 5657 5656 5655
5541 5544 5546 5548 5551 5553 5555 5557 5559 5560 5561 5562 5564 5565 5566 5568 5570 5571 5573 5575 5577 5578 5580 5583 5586 5587 5589 5591 5593 5596 5598 5601 5604 5606 5608 5610 5612 5614 5617 5620 5623 5625 5627 5629 5630 5633 5635 5636 5638 5640 5642 5644 5645 5647 5648 5649 5650 5652 5653 5654 5654 5655 5656 5656 5657 5657 5657 5657 5657 5658 5658 5658 5658 5657 5657 5657 5657 5657 5657 5656 5656 5656 5655 5654 5653 5652 5651
5545 5548 5550 5552 5554 5555 5557 5560 5562 5563 5564 5565 5566 5568 5569 5570 5572 5574 5575 5577 5579 5580 5583 5585 5588 5589 5591 5593 5595 5597 5600 5602 5604 5606 5607 5610 5613 5615 5618 5621 5623 5625 5627 5628 5630 5632 5634 5636 5638 5640 5641 5643 5644 5646 5647 5648 5649 5650 5651 5652 5653 5654 5654 5655 5655 5655 5655 5655 5655 5655 5655 5655 5654 5654 5654 5654 5654 5653 5653 5653 5652 5652 5652 5651 5650 5649 5648
5548 5551 5554 5556 5557 5559 5561 5562 5564 5566 5567 5568 5569 5571 5572 5574 5575 5577 5578 5580 5581 5583 5585 5587 5589 5591 5593 5595 5597 5599 5601 5603 5605 5607 5609 5612 5614 5617 5619 5622 5624 5625 5627 5628 5630 5632 5633 5635 5637 5639 5640 5642 5643 5645 5646 5647 5647 5648 5649 5650 5651 5652 5652 5653 5653 5653 5653 5653 5653 5652 5652 5652 5652 5651 5651 5651 5651 5651 5650 5650 5650 5649 5649 5649 5648 5647 5646
5553 5555 5558 5560 5561 5563 5565 5566 5567 5569 5570 5571 5573 5574 5576 5577 5578 5580 5581 5582 5584 5586 5588 5590 5592 5594 5596 5597 5599 5601 5603 5605 5607 5609 5611 5614 5616 5618 5620 5622 5624 5625 5627 5629 5630 5632 5633 5635 5637 5638 5640 5641 5642 5643 5644 5645 5646 5647 5647 5648 5649 5649 5650 5650 5650 5650 5650 5650 5650 5649 5649 5649 5649 5649 5649 5649 5649 5649 5648 5648 5648 5647 5647 5646 5646 5645 5644